Regional Weather Roundup
Issued by NWS

Home | Current Version | Previous Version | Graphics & Text | Print | Product List | Glossary On
Versions: 1 2 3 4 5 6 7 8 9 10 11 12 13 14 15 16 17 18 19 20 21 22 23 24 25 26 27 28 29 30 31 32 33 34 35 36 37 38 39 40 41 42 43 44 45 46 47 48 49 50
000
ASUS43 KLMK 011102
RWRKY
KENTUCKY REGIONAL WEATHER ROUNDUP
NATIONAL WEATHER SERVICE LOUISVILLE KY
700 AM EDT SAT NOV 01 2014

NOTE "FAIR" INDICATES FEW OR NO CLOUDS BELOW 12,000 FEET
WITH NO SIGNIFICANT WEATHER AND/OR OBSTRUCTIONS TO VISIBILITY.

KYZ001>023-026-027-061>063-070>075-011200-
WESTERN AND SOUTH CENTRAL KENTUCKY

CITY           SKY/WX    TMP DP  RH WIND       PRES   REMARKS
PADUCAH        CLEAR     33  23  66 N8        30.34R WCI  26
HENDERSON      CLEAR     36  23  60 NW13      30.30R WCI  27
OWENSBORO      CLOUDY    37  28  70 N13G21    30.28R WCI  29
HOPKINSVILLE   PTCLDY    35  26  68 NW10G18   30.25R WCI  27
BOWLING GREEN  CLOUDY    37  26  64 N9G17     30.22R WCI  30
GLASGOW        CLOUDY    35  28  76 N9G20     30.18R WCI  28
$$

KYZ024-025-028>034-038-045-046-053-011200-
NORTH CENTRAL KENTUCKY

CITY           SKY/WX    TMP DP  RH WIND       PRES   REMARKS
LOUISVILLE/SDF CLOUDY    36  26  67 N20G25    30.20R WCI  25
LOUISVILLE/LOU CLOUDY    35  26  69 NW14G21   30.20R WCI  26
FORT KNOX      CLOUDY    34  26  72 NW16G24   30.19R WCI  23
$$

KYZ035>037-039>044-047>052-055>060-089>105-011200-
NORTHEAST KENTUCKY

CITY           SKY/WX    TMP DP  RH WIND       PRES   REMARKS
LEXINGTON      LGT SNOW  35  31  85 NW16      30.10R FOG     WCI  25
COVINGTON      FLURRIES  34  29  82 N23G31    30.14R WCI  22
FRANKFORT      LGT SNOW  33  30  88 NW13G20   30.13R FOG     WCI  24
$$

KYZ054-064>069-076>088-106>120-011200-
SOUTHEAST KENTUCKY

CITY           SKY/WX    TMP DP  RH WIND       PRES   REMARKS
JACKSON        FLURRIES  32  30  92 NW8G18    29.98R WCI  25
LONDON         LGT SNOW  34  30  85 NW12      30.03R FOG     WCI  25
SOMERSET       FLURRIES  32  32 100 N10G17    30.10R WCI  24
MIDDLESBORO    LGT RAIN  34  32  91 NW13G20   30.00R WCI  25
MONTICELLO     FLURRIES  36  32  85 N14G24    30.12R WCI  27
$$




USA.gov is the U.S. government's official web portal to all federal, state and local government web resources and services.